Tracking 19176 objects as of 26-May-2018
HD Live streaming from Space Station
objects crossing your sky now

IUS R/B(2)

Track IUS R/B(2) now!


NORAD ID: 25869
Int'l Code: 1999-040D
Perigee: 638.1 km
Apogee: 72,694.0 km
Inclination: 31.4 °
Period: 1,480.9 minutes
Semi major axis: 43037 km
RCS: 4.4547 m2 (large)
Launch date: July 23, 1999
Source: United States (US)
Launch site: AIR FORCE EASTERN TEST RANGE (AFETR)

Note: This is a ROCKET BODY
aabbcc
Your satellite tracking list
Your tracking list is empty




NASA's NSSDC Master Catalog

Two Line Element Set (TLE):
1 25869U 99040D   18145.08806141 -.00000214 +00000-0 +11403-2 0  9998
2 25869 031.4230 123.2626 8371387 324.1181 001.5196 00.97238776066894
Source of the keplerian elements: AFSPC